This is the latest recevied weather packets stored in our database for station/object W2EH. If no packets are shown the sender has not sent any weather packets the latest 10 day(s).
| Time | Temp. | Humidity | Pressure | Rain* | Wind** | Luminosity | Snow |
|---|---|---|---|---|---|---|---|
| 1777591202 | 18.33° C | 97% | 1009.4 hPa | 6.6 mm | - | 22 W/m² | - |
| 1777590901 | 18.33° C | 97% | 1010.3 hPa | 6.1 mm | - | 24 W/m² | - |
| 1777590598 | 18.33° C | 97% | 1011.4 hPa | 4.32 mm | - | 12 W/m² | - |
| 1777590294 | 18.33° C | 97% | 1011.7 hPa | 1.78 mm | - | 7 W/m² | - |
| 1777589992 | 18.33° C | 97% | 1011.2 hPa | 0.51 mm | - | 8 W/m² | - |
| 1777589688 | 18.33° C | 97% | 1010.7 hPa | 0.51 mm | - | 13 W/m² | - |
| 1777589386 | 18.33° C | 97% | 1010.6 hPa | 0 mm | - | 12 W/m² | - |
| 1777589083 | 18.33° C | 96% | 1010.4 hPa | 0 mm | - | 17 W/m² | - |
| 1777588779 | 18.33° C | 96% | 1010.6 hPa | 0.51 mm | - | 14 W/m² | - |
| 1777588474 | 18.33° C | 96% | 1010.5 hPa | 0.51 mm | - | 18 W/m² | - |
| 1777588169 | 18.33° C | 96% | 1010.4 hPa | 0.51 mm | - | 17 W/m² | - |
| 1777587866 | 18.33° C | 96% | 1010 hPa | 0.51 mm | - | 22 W/m² | - |
| 1777587561 | 18.33° C | 96% | 1010 hPa | 0.51 mm | - | 22 W/m² | - |
| 1777587256 | 18.33° C | 96% | 1011 hPa | 0.51 mm | - | 9 W/m² | - |
| 1777586952 | 18.33° C | 96% | 1010.6 hPa | 0 mm | - | 12 W/m² | - |
| 1777586648 | 18.33° C | 96% | 1010.1 hPa | 0.51 mm | - | 13 W/m² | - |
| 1777586343 | 18.33° C | 96% | 1009.8 hPa | 0.51 mm | - | 13 W/m² | - |
| 1777586042 | 18.33° C | 96% | 1009.6 hPa | 0 mm | - | 15 W/m² | - |
| 1777585741 | 18.33° C | 95% | 1009.2 hPa | 0 mm | - | 17 W/m² | - |
| 1777585436 | 18.33° C | 96% | 1009.4 hPa | 0 mm | - | 31 W/m² | - |
| 1777585132 | 18.33° C | 96% | 1009.3 hPa | 0 mm | - | 35 W/m² | - |
| 1777584828 | 18.33° C | 96% | 1009.5 hPa | 0 mm | - | 32 W/m² | - |
| 1777584526 | 18.33° C | 96% | 1009.6 hPa | 0 mm | - | 54 W/m² | - |
| 1777584223 | 18.33° C | 96% | 1009.5 hPa | 0 mm | - | 56 W/m² | - |
| 1777583922 | 18.89° C | 96% | 1009.1 hPa | 0 mm | - | 70 W/m² | - |
* Rain latest hour (hover to see other rain measurements)
** Current wind speed in m/s (hover to see current wind gust speed)